Location: Unspecified
(0.0000°N, 0.0000°E)
Time: 11:06:24
(UTC+00:00)

STARLINK-4321 - Pass Details

Date: 31 October 2025
Orbit: 562 x 564 km, 97.6° (Epoch: 29 March)

Event Time Altitude Azimuth Distance (km) Brightness Sun altitude
Rises 18:27:50 0° 335° (NNW) 2,738 7.3 -10.7°
Reaches altitude 10° 18:31:21 10° 301° (WNW) 1,846 7.0 -11.6°
Maximum altitude 18:32:41 11° 282° (WNW) 1,753 7.2 -11.9°
Drops below altitude 10° 18:34:02 10° 262° (W) 1,849 7.8 -12.2°
Sets 18:37:35 0° 228° (SW) 2,748 8.4 -13.1°
